Location: Catstown
(52.4386°N, 7.2633°W)
Time: 22:18:37
(UTC+00:00)

USA 116 - Pass Details

Date: 18 September 2020
Orbit: 405 x 834 km, 97.9° (Epoch: 18 November)

Event Time Altitude Azimuth Distance (km) Brightness Sun altitude
Rises 19:52:49 0° 9° (N) 2,402 7.1 -12.3°
Reaches altitude 10° 19:54:47 10° 4° (N) 1,564 6.2 -12.6°
Maximum altitude 19:58:00 48° 289° (WNW) 617 4.5 -13.0°
Drops below altitude 10° 20:01:30 10° 214° (SW) 1,707 6.4 -13.5°
Sets 20:03:44 0° 209° (SSW) 2,654 7.3 -13.9°
